Lander, WY

4:04 PM MST on February 22, 2018 (GMT -0700)
Hunt

Weather History for KLND - June, 2012

Change the Weather History Date:

Thursday, June 14, 2012

  Actual Average Record
Temperature  
Mean Temperature 67 °F 62 °F  
Max Temperature 83 °F 77 °F 96 °F (1918)
Min Temperature 50 °F 48 °F 30 °F (1899)
Degree Days  
Heating Degree Days 0 4  
Month to date heating degree days 38 84  
Since 1 June heating degree days 38 84  
Since 1 July heating degree days 6800 7706  
Cooling Degree Days 2 2  
Month to date cooling degree days 33 17  
Year to date cooling degree days 42 22  
Since 1 June cooling degree days 33 17  
Growing Degree Days 16 (Base 50)    
Moisture  
Dew Point 32 °F    
Average Humidity 37    
Maximum Humidity 59    
Minimum Humidity 14    
Precipitation  
Precipitation 0.00 in 0.05 in 1.80 in (1963)
Month to date precipitation 0.04 0.78  
Year to date precipitation 4.57 7.00  
Snow  
Snow 0.00 in 0.00 in - ()
Month to date snowfall 0.0 0.1  
Since 1 June snowfall 0.0 0.1  
Since 1 July snowfall 63.9 91.4  
Snow Depth 0.00 in    
Sea Level Pressure  
Sea Level Pressure 29.76 in    
Wind  
Wind Speed 5 mph (NNW)    
Max Wind Speed 12 mph    
Max Gust Speed -    
Visibility 10 miles    
Events      
T = Trace of Precipitation, MM = Missing Value Source: NWS Daily Summary

Daily Weather History Graph

Daily Weather History Graph

Search for Another Location

Airport or City:

Trip Planner

Search our weather history database for the weather conditions in past years. The results will help you decide how hot, cold, wet, or windy it might be!

Date:

Astronomy

Jun. 14, 2012 Rise Set
Actual Time 5:35 AM MDT 8:54 PM MDT
Civil Twilight 5:00 AM MDT 9:30 PM MDT
Nautical Twilight 4:15 AM MDT 10:15 PM MDT
Astronomical Twilight 3:19 AM MDT 11:11 PM MDT
Moon 2:24 AM MDT (6/14) 4:37 PM MDT (6/14)
Length of Visible Light 16h 29m
Length of Day
15h 19m
Waning Crescent, 20% of the Moon is Illuminated
Jun 14
Waning Crescent
Jun 19
New
Jun 26
First Quarter
Jul 3
Full
Jul 10
Last Quarter

Hourly Weather History & Observations

Time (MDT) Temp. Dew Point Humidity Pressure Visibility Wind Dir Wind Speed Gust Speed Precip Events Conditions
12:53 AM 60.1 °F 25.0 °F 26% 29.66 in 10.0 mi WNW 11.5 mph - N/A   Clear
1:53 AM 57.9 °F 28.9 °F 33% 29.71 in 10.0 mi WSW 4.6 mph - N/A   Clear
2:53 AM 57.9 °F 32.0 °F 37% 29.74 in 10.0 mi West 3.5 mph - N/A   Clear
3:53 AM 57.0 °F 34.0 °F 42% 29.76 in 10.0 mi Calm Calm - N/A   Clear
4:53 AM 52.0 °F 35.1 °F 53% 29.80 in 10.0 mi Calm Calm - N/A   Clear
5:53 AM 53.1 °F 35.1 °F 50% 29.81 in 10.0 mi Calm Calm - N/A   Clear
6:53 AM 51.1 °F 37.0 °F 59% 29.83 in 10.0 mi Calm Calm - N/A   Clear
7:53 AM 57.0 °F 37.0 °F 47% 29.83 in 10.0 mi Calm Calm - N/A   Clear
8:53 AM 59.0 °F 36.0 °F 42% 29.85 in 10.0 mi Calm Calm - N/A   Clear
9:53 AM 63.0 °F 37.0 °F 38% 29.84 in 10.0 mi Variable 5.8 mph - N/A   Clear
10:53 AM 66.0 °F 37.0 °F 34% 29.82 in 10.0 mi South 4.6 mph - N/A   Clear
11:53 AM 69.1 °F 36.0 °F 30% 29.80 in 10.0 mi Variable 3.5 mph - N/A   Clear
12:53 PM 71.1 °F 36.0 °F 28% 29.78 in 10.0 mi Variable 3.5 mph - N/A   Clear
1:53 PM 75.0 °F 34.0 °F 22% 29.75 in 10.0 mi North 8.1 mph - N/A   Clear
2:53 PM 78.1 °F 32.0 °F 19% 29.72 in 10.0 mi NNE 8.1 mph - N/A   Clear
3:53 PM 81.0 °F 30.0 °F 16% 29.69 in 10.0 mi NE 8.1 mph - N/A   Clear
4:53 PM 82.0 °F 28.0 °F 14% 29.68 in 10.0 mi NNE 8.1 mph - N/A   Clear
5:53 PM 81.0 °F 27.0 °F 14% 29.69 in 10.0 mi Variable 4.6 mph - N/A   Clear
6:53 PM 80.1 °F 28.9 °F 15% 29.70 in 10.0 mi ENE 5.8 mph - N/A   Clear
7:53 PM 77.0 °F 30.0 °F 18% 29.71 in 10.0 mi NE 6.9 mph - N/A   Clear
8:53 PM 73.9 °F 28.9 °F 19% 29.72 in 10.0 mi Calm Calm - N/A   Clear
9:53 PM 66.0 °F 30.9 °F 27% 29.78 in 10.0 mi West 6.9 mph - N/A   Clear
10:53 PM 64.0 °F 28.0 °F 26% 29.80 in 10.0 mi West 8.1 mph - N/A   Clear
11:53 PM 62.1 °F 27.0 °F 26% 29.80 in 10.0 mi WSW 8.1 mph - N/A   Clear